Weather History for Shirley, NY

Change the Weather History Date:

Sunday, March 17, 2013

  Actual Average (KISP) Record (KISP)
Temperature  
Mean Temperature 32 °F 39 °F  
Max Temperature 37 °F 47 °F 70 °F (2003)
Min Temperature 26 °F 31 °F 16 °F (1997)
Degree Days  
Heating Degree Days 34 26  
Month to date heating degree days 472  
Since 1 July heating degree days 4367  
Cooling Degree Days 0 0  
Month to date cooling degree days 0  
Year to date cooling degree days 0  
Moisture  
Dew Point 18 °F    
Average Humidity 60    
Maximum Humidity 89    
Minimum Humidity 39    
Precipitation  
Precipitation 0.01 in 0.15 in 0.93 in (1993)
Month to date precipitation 2.38  
Year to date precipitation 9.28  
Snow  
Snow 0.00 in 0.10 in 2.30 in (1993)
Month to date snowfall 3.2  
Since 1 July snowfall 22.9  
Snow Depth -    
Sea Level Pressure  
Sea Level Pressure 30.11 in    
Wind  
Wind Speed 6 mph (NNW)    
Max Wind Speed 15 mph    
Max Gust Speed 24 mph    
Visibility 10 miles    
Events      
T = Trace of Precipitation, MM = Missing Value Source: NWS Daily Summary

Daily Weather History Graph

Daily Weather History Graph

Search for Another Location

Airport:

Trip Planner

Search our weather history database for the weather conditions in past years. The results will help you decide how hot, cold, wet, or windy it might be!

Date:

Astronomy

Mar. 17, 2013 Rise Set
Actual Time 6:59 AM EDT 7:00 PM EDT
Civil Twilight 6:32 AM EDT 7:27 PM EDT
Nautical Twilight 6:00 AM EDT 7:59 PM EDT
Astronomical Twilight 5:27 AM EDT 8:32 PM EDT
Moon 10:07 AM EDT (3/17) 12:08 AM EDT (3/17)
Length of Visible Light 12h 55m
Length of Day
12h 01m
Waxing Crescent, 31% of the Moon is Illuminated
Mar 17
Waxing Crescent
Mar 19
First Quarter
Mar 27
Full
Apr 3
Last Quarter
Apr 10
New

Hourly Weather History & Observations

Time (EDT) Temp. Windchill Dew Point Humidity Pressure Visibility Wind Dir Wind Speed Gust Speed Precip Events Conditions
12:56 AM 33.1 °F 30.0 °F 30.0 °F 89% 29.92 in 10.0 mi NW 3.5 mph - N/A   Overcast
1:56 AM 33.1 °F 28.7 °F 28.9 °F 85% 29.92 in 10.0 mi NNW 4.6 mph - N/A   Overcast
2:56 AM 30.0 °F - 27.0 °F 88% 29.93 in 10.0 mi Calm Calm - N/A   Clear
3:56 AM 27.0 °F 23.0 °F 24.1 °F 89% 29.94 in 10.0 mi NNW 3.5 mph - N/A   Clear
4:56 AM 27.0 °F 21.6 °F 24.1 °F 89% 29.97 in 10.0 mi NNW 4.6 mph - N/A   Clear
5:56 AM 27.0 °F 23.0 °F 23.0 °F 85% 30.00 in 10.0 mi NNW 3.5 mph - N/A   Clear
6:56 AM 26.1 °F 21.9 °F 21.9 °F 84% 30.02 in 10.0 mi North 3.5 mph - N/A   Clear
7:56 AM 30.0 °F 25.2 °F 25.0 °F 82% 30.06 in 10.0 mi NW 4.6 mph - N/A   Mostly Cloudy
8:56 AM 30.0 °F 23.2 °F 19.9 °F 66% 30.10 in 10.0 mi NNW 6.9 mph - N/A   Scattered Clouds
9:56 AM 32.0 °F 23.0 °F 18.0 °F 56% 30.12 in 10.0 mi North 11.5 mph - N/A   Clear
10:56 AM 33.1 °F 23.0 °F 16.0 °F 50% 30.13 in 10.0 mi NNW 15.0 mph 23.0 mph N/A   Clear
11:56 AM 34.0 °F 24.2 °F 16.0 °F 48% 30.12 in 10.0 mi NNW 15.0 mph 20.7 mph 0.01 in   Clear
12:56 PM 35.1 °F 26.9 °F 16.0 °F 46% 30.12 in 10.0 mi NNW 11.5 mph 20.7 mph N/A   Clear
1:56 PM 36.0 °F 27.1 °F 15.1 °F 43% 30.13 in 10.0 mi WNW 13.8 mph 24.2 mph N/A   Partly Cloudy
2:56 PM 36.0 °F 26.7 °F 15.1 °F 43% 30.14 in 10.0 mi WNW 15.0 mph 19.6 mph N/A   Clear
3:56 PM 37.0 °F 30.4 °F 15.1 °F 41% 30.14 in 10.0 mi NW 9.2 mph 18.4 mph N/A   Clear
4:56 PM 37.0 °F 29.3 °F 14.0 °F 39% 30.15 in 10.0 mi WNW 11.5 mph - N/A   Clear
5:56 PM 37.0 °F 32.4 °F 14.0 °F 39% 30.17 in 10.0 mi NW 5.8 mph 16.1 mph N/A   Clear
6:56 PM 35.1 °F 32.2 °F 14.0 °F 42% 30.20 in 10.0 mi NW 3.5 mph - N/A   Clear
7:56 PM 32.0 °F - 14.0 °F 48% 30.23 in 10.0 mi Calm Calm - N/A   Clear
8:56 PM 33.1 °F - 12.0 °F 42% 30.26 in 10.0 mi Calm Calm - N/A   Clear
9:56 PM 30.0 °F 25.2 °F 14.0 °F 51% 30.29 in 10.0 mi North 4.6 mph - N/A   Clear
10:56 PM 28.9 °F 21.9 °F 12.9 °F 51% 30.31 in 10.0 mi NNW 6.9 mph - N/A   Clear
11:56 PM 30.9 °F 27.5 °F 10.0 °F 42% 30.32 in 10.0 mi Variable 3.5 mph - N/A   Clear